Regional Weather Roundup
Issued by NWS

Home | Current Version | Previous Version | Text Only | Print | Product List | Glossary On
Versions: 1 2 3 4 5 6 7 8 9 10 11 12 13 14 15 16 17 18 19 20 21 22 23 24 25 26 27 28 29 30 31 32 33 34 35 36 37 38 39 40 41 42 43 44 45 46 47 48 49 50
000
ASUS43 KBIS 220820
RWRND

NORTH DAKOTA REGIONAL WEATHER ROUNDUP
NATIONAL WEATHER SERVICE BISMARCK ND
200 AM CST SAT NOV 22 2014

NOTE: "FAIR" INDICATES FEW OR NO CLOUDS BELOW 12,000 FEET WITH NO
SIGNIFICANT WEATHER AND/OR OBSTRUCTIONS TO VISIBILITY.


NDZ001>003-009>011-017-220900-
NORTHWEST NORTH DAKOTA

CITY           SKY/WX    TMP DP  RH WIND       PRES   REMARKS
WILLISTON      CLEAR     25  23  92 CALM      29.59F
MINOT          MOCLDY    33  27  78 SW9       29.58F
MINOT AFB      PTCLDY    28  27  96 W9        29.58F WCI  19
$$

NDZ018>021-031>035-040>046-220900-
SOUTHWEST NORTH DAKOTA

CITY           SKY/WX    TMP DP  RH WIND       PRES   REMARKS
BISMARCK       CLEAR     27  24  89 W3        29.67F
DICKINSON      CLEAR     33  25  72 S10       29.61F
GARRISON         N/A     29  27  92 CALM      29.61F
HETTINGER ARPT CLEAR     33  24  69 SW5       29.67F
$$

NDZ004>008-012>016-024-026-027-054-220900-
NORTHEAST NORTH DAKOTA

CITY           SKY/WX    TMP DP  RH WIND       PRES   REMARKS
GRAND FORKS    FAIR      31  26  82 W5        29.61S
GRND FRKS AFB  PTCLDY    33  30  87 W8        29.61F
DEVILS LAKE    CLEAR     30  23  74 SW9       29.59F
$$

NDZ022-023-025-028>030-036>039-047>053-220900-
SOUTHEAST NORTH DAKOTA

CITY           SKY/WX    TMP DP  RH WIND       PRES   REMARKS
FARGO          CLEAR     28  23  81 S9        29.67F WCI  19
JAMESTOWN      CLEAR     31  25  78 W6        29.65F
$$




USA.gov is the U.S. government's official web portal to all federal, state and local government web resources and services.